Temperature
5 6 5 4 3 3 3 3 3 5 6 7 7 7 7 8 7 7 6 6 5 5 4 4 3 3 3 3 2 2 2 2 1 1 1 1 1 1 1 1 1 1 1 2
4 5 5 5 4 4 3 3 4 4 5 7 7 7 7 7 6 6 5 5 5 4 3 3 3 2 2 2 2 2 1 1 1 1 1 1 1 1 1 1 1 1 1 1
3 4 4 3 5 5 4 4 4 4 5 6 6 6 6 6 6 5 5 5 4 3 3 2 2 2 2 1 1 1 1 1 1 0 0 0 1 1 0 0 0 1 1 1
3 3 2 5 6 6 5 5 5 4 4 5 5 6 6 6 5 5 5 4 3 3 2 2 1 1 1 1 1 1 1 0 0 -0 -0 0 1 0 0 -0 -0 0 0 1
2 2 3 5 6 5 4 4 5 4 5 5 5 5 5 6 5 5 4 3 3 2 2 1 1 1 0 0 0 0 -0 -0 -0 -0 -0 -0 0 0 -0 -0 -0 -0 0 0
2 2 3 5 5 5 4 2 4 4 4 4 4 2 3 5 4 4 3 3 2 1 1 1 0 0 -0 -0 -0 -1 -1 -1 -1 -1 -1 -0 -0 -0 -0 -0 -0 -0 0 0
1 2 3 5 4 4 3 3 5 5 5 4 3 3 4 4 3 3 2 2 1 1 0 0 -0 -1 -1 -1 -1 -1 -1 -1 -1 -1 -1 -1 -1 -1 -1 -1 -0 -0 -0 0
1 1 2 4 3 3 3 5 5 5 5 4 4 4 3 3 2 2 1 1 1 0 -0 -0 -1 -1 -1 -1 -1 -1 -2 -2 -1 -1 -1 -1 -1 -1 -1 -1 -1 -1 -0 0
2 3 4 4 4 4 5 4 4 4 4 4 3 3 2 2 1 1 1 0 0 -0 -1 -1 -1 -2 -2 -2 -2 -2 -2 -2 -2 -2 -2 -1 -1 -1 -1 -1 -1 -1 -1 -1
2 3 4 5 5 4 4 4 4 3 3 3 2 2 2 1 1 0 0 -0 -0 -1 -1 -1 -2 -2 -2 -2 -2 -2 -2 -2 -2 -2 -2 -2 -2 -2 -2 -2 -2 -1 -1 -1
1 2 3 4 4 4 4 3 3 3 2 2 1 1 1 0 0 -0 -1 -1 -1 -1 -2 -2 -2 -2 -3 -3 -3 -3 -3 -3 -3 -2 -2 -2 -2 -2 -2 -2 -2 -2 -1 -1
1 2 2 2 3 3 3 2 2 2 1 1 1 0 -0 -1 -1 -1 -1 -2 -2 -2 -2 -3 -3 -3 -3 -3 -3 -4 -4 -3 -3 -3 -3 -3 -2 -2 -2 -2 -2 -2 -1 -1
2 3 3 2 2 2 2 2 1 1 1 0 -0 -0 -1 -1 -1 -2 -2 -2 -3 -3 -3 -3 -3 -3 -3 -4 -4 -4 -4 -4 -3 -3 -3 -3 -3 -3 -3 -2 -2 -1 -1 -1
2 2 1 1 1 1 1 1 0 0 -0 -1 -1 -1 -2 -2 -2 -3 -3 -3 -3 -3 -4 -4 -4 -4 -4 -4 -4 -4 -4 -4 -4 -4 -4 -3 -3 -3 -3 -3 -3 -2 -1 -1
1 1 1 1 0 0 -0 -0 -1 -1 -1 -2 -2 -2 -2 -3 -3 -3 -3 -4 -4 -4 -4 -4 -4 -4 -4 -4 -5 -5 -4 -4 -4 -4 -4 -4 -4 -3 -3 -3 -3 -3 -2 -2
-0 -0 -0 -0 -1 -1 -1 -1 -2 -2 -2 -2 -3 -3 -3 -4 -4 -4 -4 -4 -4 -4 -5 -5 -5 -5 -5 -5 -5 -5 -5 -5 -4 -4 -4 -4 -4 -4 -4 -3 -3 -3 -3 -3
-2 -2 -2 -2 -2 -2 -2 -2 -3 -3 -3 -3 -4 -4 -4 -4 -4 -4 -4 -5 -5 -5 -5 -5 -5 -5 -5 -5 -5 -5 -5 -5 -5 -4 -4 -4 -4 -4 -4 -4 -4 -3 -3 -3
-2 -2 -2 -2 -3 -3 -3 -3 -3 -4 -4 -4 -4 -4 -4 -5 -5 -5 -5 -5 -5 -5 -5 -6 -6 -6 -5 -5 -5 -5 -5 -5 -5 -5 -5 -4 -4 -4 -4 -4 -4 -4 -3 -3
-3 -3 -3 -3 -4 -4 -4 -4 -4 -4 -5 -5 -5 -5 -5 -5 -5 -6 -6 -6 -6 -6 -6 -6 -6 -6 -6 -6 -6 -6 -6 -5 -5 -5 -5 -5 -4 -4 -4 -4 -4 -4 -3 -3
-4 -4 -4 -4 -4 -4 -5 -5 -5 -5 -5 -5 -5 -5 -6 -6 -6 -6 -6 -6 -7 -7 -7 -7 -6 -6 -6 -6 -6 -6 -6 -6 -6 -5 -5 -5 -5 -4 -4 -4 -4 -4 -4 -3
-5 -5 -5 -5 -5 -5 -5 -5 -6 -6 -6 -6 -6 -6 -6 -6 -6 -7 -7 -7 -7 -7 -7 -7 -7 -7 -7 -6 -6 -6 -6 -6 -6 -6 -6 -5 -5 -5 -5 -4 -4 -4 -4 -3
-6 -6 -6 -6 -6 -6 -6 -6 -6 -6 -6 -7 -7 -7 -7 -7 -7 -7 -7 -8 -7 -7 -7 -7 -7 -7 -7 -7 -6 -6 -6 -6 -6 -6 -6 -6 -5 -5 -5 -5 -4 -4 -4 -4
-6 -6 -6 -6 -6 -6 -6 -7 -7 -7 -7 -7 -7 -7 -7 -7 -8 -8 -8 -8 -8 -8 -8 -7 -7 -7 -7 -7 -6 -6 -6 -6 -6 -6 -6 -6 -5 -5 -5 -5 -5 -4 -4 -4
-7 -7 -7 -7 -7 -7 -7 -7 -7 -7 -7 -8 -8 -8 -8 -8 -8 -8 -8 -8 -8 -8 -8 -8 -8 -7 -7 -7 -7 -7 -6 -6 -6 -6 -6 -6 -6 -5 -5 -5 -5 -4 -4 -4
-7 -7 -7 -7 -7 -7 -8 -8 -8 -8 -8 -8 -8 -8 -8 -8 -8 -8 -8 -8 -8 -8 -8 -8 -8 -7 -7 -7 -7 -7 -7 -7 -7 -6 -6 -6 -6 -5 -5 -5 -5 -4 -4 -4
-7 -8 -8 -8 -8 -8 -8 -8 -8 -9 -9 -9 -9 -9 -9 -9 -9 -9 -8 -8 -8 -8 -8 -8 -8 -8 -8 -7 -7 -7 -7 -7 -7 -6 -6 -6 -6 -5 -5 -5 -4 -4 -4 -4
-8 -8 -8 -8 -8 -9 -9 -9 -9 -9 -9 -9 -9 -9 -9 -9 -9 -9 -9 -9 -9 -8 -8 -8 -8 -8 -8 -8 -7 -7 -7 -7 -7 -6 -6 -6 -6 -5 -5 -5 -5 -4 -4 -4
Wind_Speed
10 9 5 8 9 12 14 13 11 11 14 16 10 8 8 7 6 6 6 7 6 7 8 8 9 9 9 9 9 8 8 8 9 9 8 9 9 8 9 9 10 10 10 9
8 11 12 13 14 15 16 16 18 19 21 16 11 7 7 6 6 6 7 7 7 8 9 9 9 9 10 9 9 8 8 9 9 9 9 9 9 9 9 8 9 9 9 8
6 6 7 12 14 16 13 12 12 18 17 10 9 8 7 6 5 6 7 7 8 8 8 9 9 9 10 9 10 9 9 9 9 9 9 9 10 9 9 8 8 8 8 8
4 3 10 9 5 10 14 15 15 12 10 8 8 6 6 7 6 6 6 6 7 7 8 8 9 9 9 9 9 9 9 9 9 9 10 10 9 9 9 8 7 8 8 7
4 6 9 9 5 5 7 10 11 13 13 11 7 6 7 6 3 4 5 5 6 6 7 9 9 9 9 10 10 9 9 9 10 9 9 10 10 10 8 7 7 7 7 7
5 6 8 5 1 3 2 7 6 8 8 6 2 4 5 3 3 4 5 4 5 6 8 9 9 8 9 10 10 10 10 10 9 8 9 10 10 9 8 7 7 7 7 6
10 8 8 5 4 5 4 6 1 2 3 2 3 5 4 4 4 4 5 6 6 6 7 8 8 8 9 10 9 10 10 9 9 9 8 9 9 7 7 7 6 6 7 6
7 9 10 4 6 6 6 1 1 1 2 3 4 4 4 5 5 5 6 6 6 6 7 7 7 7 9 10 9 10 10 10 10 9 8 8 8 7 6 6 6 6 6 6
9 9 4 7 6 5 2 2 2 2 3 3 4 5 5 5 5 6 6 6 6 6 8 8 7 6 9 9 9 10 10 10 10 10 8 8 7 6 6 5 5 5 5 5
6 8 6 5 5 4 4 4 3 3 3 4 5 6 6 5 5 5 6 6 5 6 8 8 7 6 7 8 8 9 10 10 9 9 9 8 6 5 5 5 5 5 5 5
8 7 6 6 5 4 4 4 3 3 4 4 5 6 6 5 6 5 5 5 5 6 7 8 7 7 7 7 8 9 9 9 9 8 8 7 6 5 6 5 5 5 4 4
7 4 4 5 4 3 4 5 4 4 5 4 4 5 5 5 5 5 5 5 6 6 7 8 7 7 7 7 7 8 9 8 7 7 7 6 6 7 8 7 9 9 8 8
5 3 3 4 3 2 3 4 3 3 3 4 4 4 4 5 5 5 5 6 6 7 7 7 7 8 8 7 7 8 8 8 7 7 7 7 6 6 7 8 9 9 9 9
4 3 4 4 4 3 3 2 2 2 2 3 3 3 3 4 4 5 5 6 6 6 6 7 7 8 8 8 8 8 8 9 8 6 6 6 5 5 5 5 6 6 7 9
3 3 4 3 2 2 2 1 2 2 2 2 2 3 3 4 4 5 5 5 5 6 6 7 7 8 8 9 9 8 7 7 7 7 6 5 5 5 4 4 4 5 5 6
3 3 3 3 3 2 2 2 2 3 2 2 3 3 3 3 4 4 4 5 5 6 6 7 8 8 9 9 9 7 7 11 10 7 6 5 4 4 4 4 4 4 4 4
2 3 3 3 3 2 2 1 2 2 2 2 3 3 3 3 4 4 5 5 5 5 5 6 8 8 8 8 8 6 6 8 11 8 6 5 4 4 3 3 3 3 4 5
2 2 2 2 1 1 1 1 1 1 2 2 3 2 3 3 4 5 5 5 6 5 5 6 7 8 8 8 7 6 6 6 6 6 6 5 4 3 3 2 3 3 3 4
4 3 3 3 2 1 1 1 1 1 1 1 2 2 3 3 4 4 5 5 6 6 7 7 11 9 8 9 9 6 6 6 6 6 5 6 5 3 2 2 2 2 3 3
4 3 3 3 3 2 1 1 2 2 2 2 2 2 3 4 4 4 5 5 4 4 6 8 8 7 7 8 10 6 6 6 6 5 5 4 4 3 3 2 2 2 3 3
4 3 3 3 3 3 3 2 2 2 3 2 2 2 3 4 4 4 4 5 5 6 7 10 7 6 6 8 9 6 5 6 5 5 5 4 4 3 3 2 2 3 3 3
3 3 3 3 3 3 3 3 2 2 3 3 3 3 3 4 5 5 4 4 5 9 7 5 5 8 10 10 6 6 5 5 5 4 4 4 4 3 3 3 2 2 2 2
3 3 3 3 3 2 3 3 3 2 2 3 3 3 4 4 4 4 5 5 5 9 7 5 9 13 13 7 5 5 5 5 4 4 4 4 3 3 3 3 2 2 2 2
3 3 3 3 2 2 3 3 3 2 2 3 3 3 3 4 4 3 3 8 10 10 6 9 13 13 12 6 5 5 5 4 4 4 4 3 3 3 3 2 2 2 2 2
2 2 2 3 3 2 2 2 3 3 3 3 3 3 3 2 3 4 5 6 10 10 6 9 13 13 8 5 5 5 5 4 4 3 3 3 3 3 3 3 2 1 1 1
2 2 2 2 2 2 2 2 3 3 3 4 4 4 3 3 4 4 4 5 7 9 7 5 7 8 6 5 6 5 5 5 5 4 3 3 3 3 3 3 3 2 1 1
2 2 2 2 2 2 2 3 3 3 3 4 4 4 4 4 4 5 5 5 5 5 5 5 5 5 5 5 6 5 5 4 3 3 3 3 3 3 3 3 2 2 2 1
Wind_Direction
261 270 237 226 221 210 216 223 232 249 257 266 278 292 301 307 309 309 311 311 313 314 313 314 314 312 312 308 307 302 298 295 294 296 296 296 292 289 288 286 285 281 276 269
261 253 255 253 238 224 225 233 244 259 268 268 280 291 296 303 308 306 304 307 310 311 313 313 312 313 314 311 312 310 301 299 300 303 306 302 296 290 288 288 287 284 280 273
258 257 277 257 237 225 224 222 225 243 254 274 280 281 288 296 291 287 292 300 306 308 309 310 311 313 312 311 313 311 306 306 309 308 306 302 301 297 292 290 286 285 282 276
256 254 244 247 224 217 226 235 228 240 260 268 269 283 292 288 283 284 294 298 300 304 309 308 308 310 309 311 312 310 309 311 312 311 308 305 303 299 292 286 282 278 278 276
226 243 266 268 232 198 213 253 232 234 250 260 269 292 285 272 272 287 297 297 297 301 307 310 309 312 314 312 312 311 312 313 314 312 310 311 307 302 297 292 285 283 281 278
225 238 245 248 112 105 114 270 244 220 241 259 265 280 283 331 345 314 311 310 307 308 308 306 307 314 314 311 312 312 313 314 315 315 312 309 305 301 297 291 285 285 283 278
231 243 258 244 147 118 187 249 292 202 244 237 222 237 279 325 322 313 310 307 307 305 302 301 308 315 310 309 309 311 314 316 318 315 311 308 307 302 301 301 299 296 293 287
209 228 245 172 146 189 224 312 11 318 264 261 262 278 299 304 304 304 303 305 309 306 303 306 311 312 308 309 314 318 317 317 316 314 312 312 308 306 308 309 308 309 308 304
203 221 251 175 204 221 240 274 289 297 297 287 281 283 286 289 294 296 297 302 306 304 306 308 308 311 310 312 321 321 318 317 316 316 313 310 308 309 312 313 312 313 314 311
252 255 255 235 246 248 251 258 277 290 291 289 281 283 288 292 294 297 299 303 310 309 305 307 313 318 313 317 324 321 316 315 314 314 313 317 317 312 310 310 308 309 312 315
259 274 290 269 261 264 273 281 285 284 283 281 284 291 293 297 297 298 303 308 308 303 301 305 314 317 320 324 325 321 317 314 316 317 314 315 317 313 309 305 303 304 306 309
239 239 235 257 254 255 263 269 267 270 277 275 271 280 289 292 294 299 303 306 305 305 306 310 316 317 321 326 325 320 317 317 316 316 316 315 317 320 319 318 318 317 318 315
248 279 267 281 299 296 280 279 275 267 268 279 279 278 282 284 291 298 302 305 303 304 308 311 316 321 326 328 324 318 313 313 313 313 314 314 317 320 321 326 327 327 331 334
256 270 267 266 271 285 284 281 286 281 277 282 286 288 289 291 296 299 300 301 304 309 312 316 321 325 330 328 322 318 315 312 313 309 309 306 310 312 313 318 326 334 343 350
278 266 255 269 274 285 281 271 283 284 288 297 296 293 294 293 293 296 303 310 313 315 319 323 323 324 329 326 321 317 317 315 312 310 309 306 309 313 314 316 320 328 342 353
297 290 272 263 266 276 274 265 265 275 284 295 301 302 301 298 299 307 316 320 318 316 320 323 321 321 324 323 321 318 315 314 318 314 313 313 317 319 320 325 331 335 341 343
283 270 266 268 273 283 286 284 272 278 299 300 298 306 313 314 313 317 320 322 315 310 315 318 317 320 322 323 322 317 313 313 316 316 313 314 320 320 321 332 336 336 337 337
305 291 289 282 288 298 318 335 332 320 302 296 304 314 314 311 310 313 315 318 319 319 324 325 323 324 322 321 322 318 313 311 312 312 313 316 320 322 328 336 336 336 339 347
8 13 20 15 14 26 2 343 337 334 325 321 319 312 310 315 319 317 319 322 323 322 326 326 325 326 321 322 326 318 318 315 313 312 316 319 324 330 331 333 334 338 341 347
14 16 21 19 19 31 30 11 12 0 346 340 337 332 328 324 324 323 320 312 306 304 312 319 323 321 321 321 326 321 319 318 318 321 325 327 330 333 333 339 347 351 358 2
8 12 21 26 25 30 29 24 23 5 350 354 350 327 318 319 323 323 321 316 318 325 326 326 327 322 323 325 325 325 322 322 323 325 327 331 335 338 338 345 355 356 2 10
8 13 21 29 33 23 13 18 23 12 2 359 353 341 332 327 328 325 311 295 308 325 332 323 321 325 330 329 328 326 325 322 321 323 326 331 334 336 340 346 354 356 3 11
9 14 23 25 23 9 6 11 13 10 355 342 334 331 328 322 321 320 320 321 323 327 332 319 324 329 331 334 330 325 324 324 326 328 328 330 330 332 335 336 338 343 355 3
13 18 20 13 14 15 4 355 355 352 337 324 319 316 316 321 325 319 307 322 330 330 330 325 330 332 335 340 329 324 323 324 326 329 332 333 332 332 331 328 325 333 342 348
13 18 16 8 5 359 352 351 349 341 335 332 327 324 316 304 303 316 322 323 326 331 329 329 332 335 340 332 327 326 327 324 323 326 330 332 332 334 334 332 327 322 329 339
9 12 7 2 350 345 348 347 343 341 344 343 339 338 335 329 321 318 319 320 322 328 331 326 327 329 331 327 325 326 324 323 328 338 340 333 331 332 334 338 335 330 332 341
5 9 7 1 359 2 359 349 342 340 342 336 328 329 332 329 326 326 325 325 327 328 326 324 325 325 326 326 325 325 325 328 332 333 334 332 331 333 337 336 334 335 343 5
Height
1450 1447 1450 1453 1455 1458 1460 1456 1455 1441 1434 1426 1426 1426 1425 1424 1423 1422 1421 1420 1418 1415 1413 1409 1406 1403 1399 1394 1390 1385 1380 1376 1372 1368 1364 1360 1357 1353 1350 1347 1344 1342 1340 1338
1449 1444 1444 1444 1443 1445 1448 1448 1443 1438 1431 1422 1422 1422 1422 1421 1420 1419 1418 1416 1414 1412 1409 1406 1402 1398 1394 1389 1385 1380 1375 1371 1367 1362 1358 1354 1350 1347 1344 1341 1339 1336 1333 1332
1448 1442 1442 1441 1430 1431 1433 1431 1434 1433 1423 1419 1420 1420 1419 1418 1417 1416 1415 1413 1411 1408 1405 1402 1398 1394 1389 1385 1380 1375 1371 1366 1362 1357 1352 1348 1345 1342 1339 1336 1334 1331 1329 1327
1446 1445 1446 1424 1416 1416 1419 1419 1420 1419 1416 1416 1416 1416 1416 1415 1414 1412 1411 1409 1407 1404 1401 1398 1394 1390 1385 1380 1375 1371 1366 1362 1357 1352 1348 1344 1340 1337 1334 1332 1329 1327 1324 1322
1443 1440 1431 1418 1412 1413 1416 1416 1411 1413 1412 1412 1413 1413 1411 1411 1411 1409 1408 1406 1403 1400 1397 1393 1389 1385 1381 1376 1371 1367 1362 1357 1352 1348 1344 1340 1336 1333 1330 1327 1325 1322 1320 1318
1439 1437 1430 1413 1410 1409 1414 1417 1407 1406 1407 1409 1410 1414 1410 1407 1407 1406 1404 1402 1399 1396 1393 1389 1385 1381 1377 1372 1368 1363 1358 1354 1349 1345 1341 1337 1333 1329 1326 1324 1321 1319 1316 1315
1435 1432 1422 1409 1409 1410 1420 1413 1404 1403 1405 1406 1407 1408 1406 1404 1403 1402 1400 1398 1395 1392 1388 1385 1381 1377 1373 1368 1364 1360 1355 1350 1346 1342 1338 1334 1330 1327 1323 1321 1318 1316 1314 1312
1429 1429 1420 1405 1408 1410 1407 1402 1402 1402 1403 1404 1404 1403 1402 1401 1400 1398 1396 1393 1391 1388 1384 1381 1377 1373 1369 1365 1360 1356 1351 1347 1342 1338 1335 1331 1328 1324 1321 1318 1316 1313 1311 1309
1414 1410 1401 1400 1400 1400 1401 1401 1401 1401 1401 1401 1400 1400 1399 1398 1396 1394 1392 1389 1387 1384 1380 1377 1373 1370 1365 1361 1357 1352 1348 1343 1339 1336 1332 1329 1325 1322 1319 1317 1314 1312 1310 1307
1404 1399 1397 1397 1397 1398 1398 1398 1398 1399 1399 1399 1398 1396 1395 1394 1392 1390 1388 1386 1383 1380 1376 1372 1369 1366 1362 1358 1354 1349 1345 1341 1337 1333 1330 1326 1323 1321 1318 1315 1313 1311 1308 1306
1400 1396 1395 1393 1394 1395 1395 1395 1395 1395 1395 1395 1394 1393 1392 1390 1388 1386 1384 1382 1379 1376 1372 1368 1365 1361 1358 1354 1350 1346 1342 1338 1335 1331 1328 1324 1321 1319 1317 1315 1313 1310 1307 1305
1395 1392 1393 1391 1391 1391 1392 1391 1391 1391 1390 1390 1390 1389 1388 1386 1384 1382 1380 1378 1375 1372 1369 1365 1361 1358 1354 1351 1348 1344 1339 1336 1333 1329 1326 1323 1320 1317 1315 1313 1311 1309 1307 1305
1388 1388 1388 1388 1387 1387 1387 1387 1387 1387 1387 1386 1386 1385 1384 1382 1380 1378 1376 1374 1371 1368 1365 1361 1358 1354 1351 1347 1344 1341 1337 1334 1331 1328 1325 1322 1319 1316 1312 1310 1309 1307 1304 1302
1384 1384 1384 1384 1384 1384 1384 1384 1384 1383 1383 1383 1382 1381 1380 1378 1376 1374 1372 1370 1368 1365 1362 1358 1355 1351 1348 1344 1341 1338 1335 1332 1329 1326 1323 1320 1318 1315 1313 1309 1306 1303 1302 1301
1380 1381 1381 1380 1380 1380 1380 1380 1380 1379 1379 1379 1378 1377 1376 1374 1372 1371 1369 1367 1364 1361 1358 1355 1352 1348 1345 1342 1338 1335 1332 1329 1326 1323 1321 1319 1316 1314 1312 1309 1307 1304 1301 1300
1377 1377 1377 1377 1377 1377 1377 1376 1376 1376 1376 1376 1375 1374 1373 1371 1369 1367 1366 1364 1361 1358 1355 1352 1349 1346 1343 1339 1336 1332 1329 1327 1324 1321 1319 1317 1315 1313 1311 1309 1306 1304 1302 1300
1374 1374 1373 1373 1373 1373 1373 1373 1373 1373 1373 1372 1372 1370 1369 1368 1366 1364 1362 1360 1358 1356 1353 1350 1347 1343 1340 1337 1333 1330 1327 1325 1322 1320 1318 1316 1314 1312 1310 1309 1307 1305 1303 1302
1372 1372 1371 1371 1371 1370 1370 1370 1370 1370 1370 1369 1369 1368 1366 1365 1363 1361 1359 1357 1355 1352 1350 1348 1345 1341 1338 1334 1331 1328 1325 1323 1321 1318 1317 1315 1313 1312 1310 1309 1307 1306 1304 1303
1369 1369 1369 1368 1368 1368 1368 1368 1368 1368 1367 1367 1366 1365 1364 1362 1361 1359 1357 1354 1352 1349 1347 1345 1342 1339 1336 1333 1330 1327 1324 1322 1320 1318 1316 1314 1313 1311 1310 1309 1307 1306 1305 1304
1368 1367 1367 1366 1366 1366 1366 1366 1366 1366 1365 1364 1363 1363 1361 1360 1358 1356 1354 1352 1350 1348 1345 1343 1340 1337 1334 1331 1328 1325 1323 1321 1319 1317 1315 1314 1312 1311 1310 1309 1308 1307 1306 1305
1367 1366 1366 1365 1365 1365 1364 1364 1364 1364 1363 1362 1362 1361 1359 1358 1356 1354 1352 1350 1348 1346 1343 1341 1338 1335 1332 1329 1327 1324 1322 1320 1318 1316 1315 1313 1312 1311 1309 1309 1308 1308 1307 1307
1366 1366 1365 1365 1364 1364 1364 1363 1363 1362 1361 1361 1360 1359 1357 1356 1354 1352 1351 1349 1346 1344 1341 1339 1336 1334 1331 1328 1325 1323 1321 1319 1317 1316 1314 1313 1311 1310 1309 1309 1308 1308 1308 1308
1366 1366 1365 1364 1364 1363 1363 1362 1362 1361 1360 1359 1358 1357 1356 1354 1352 1351 1348 1347 1345 1342 1340 1337 1335 1332 1330 1327 1325 1322 1320 1318 1317 1315 1314 1313 1311 1310 1310 1309 1309 1309 1309 1309
1366 1366 1365 1364 1364 1363 1362 1362 1361 1360 1359 1358 1357 1356 1355 1353 1351 1350 1348 1345 1343 1341 1338 1335 1333 1330 1328 1326 1324 1322 1320 1318 1317 1315 1314 1313 1312 1311 1310 1310 1310 1310 1310 1310
1366 1366 1365 1364 1363 1363 1362 1361 1360 1359 1358 1357 1356 1355 1354 1352 1350 1348 1346 1343 1341 1338 1336 1334 1331 1329 1326 1324 1322 1321 1319 1318 1316 1315 1314 1313 1312 1311 1310 1310 1310 1310 1311 1311
1366 1365 1365 1364 1363 1362 1362 1361 1359 1358 1357 1356 1355 1353 1352 1350 1348 1346 1344 1342 1339 1337 1334 1332 1330 1327 1325 1323 1321 1319 1318 1317 1316 1315 1314 1313 1312 1311 1311 1311 1311 1311 1311 1312
1366 1365 1364 1364 1363 1362 1361 1360 1359 1358 1356 1355 1353 1352 1350 1348 1347 1345 1342 1340 1337 1335 1333 1330 1328 1326 1324 1322 1320 1319 1317 1316 1315 1314 1313 1313 1312 1312 1312 1312 1312 1312 1312 1312